Location: Unspecified
(0.0000°N, 0.0000°E)
Time: 10:37:25
(UTC+02:00)

Transit 2A - Visible Passes

Search period start: 30 June 2016 00:00
Search period end: 10 July 2016 00:00
Orbit: 592 x 968 km, 66.7° (Epoch: 29 June)

Date Brightness Start Highest point End Pass type
(mag) Time Alt. Az. Time Alt. Az. Time Alt. Az.
04 Jul 8.1 21:29:41 12° NE 21:29:41 12° NE 21:30:06 10° NE visible
04 Jul 8.6 23:09:50 15° NW 23:09:50 15° NW 23:11:52 10° NNW visible
05 Jul 7.2 20:48:46 10° SSE 20:51:49 17° ESE 20:55:00 10° ENE visible
05 Jul 7.8 22:30:31 10° SW 22:34:39 27° WNW 22:39:08 10° N visible
06 Jul 6.9 21:56:01 10° SW 22:00:40 46° WNW 22:05:48 10° N visible
07 Jul 5.9 21:21:54 10° SSW 21:26:44 81° WNW 21:32:06 10° NNE visible
08 Jul 5.9 20:48:06 10° S 20:52:50 58° ESE 20:58:04 10° NNE visible
09 Jul 9.0 21:59:20 10° W 22:02:02 14° WNW 22:04:51 10° NW visible
